Time,TemperatureF,DewpointF,PressureIn,WindDirection,WindDirectionDegrees,WindSpeedMPH,WindSpeedGustMPH,Humidity,HourlyPrecipIn,Conditions,Clouds,dailyrainin,SoftwareType,DateUTC
2013-12-04 00:09:00,43.9,42.0,30.15,NNE,25,5.0,8.0,93,0.01,,,0.01,weatherlink.com 1.10,2013-12-04 00:09:00,
2013-12-04 00:24:00,43.4,42.0,30.16,NNE,18,2.0,7.0,93,0.01,,,0.01,weatherlink.com 1.10,2013-12-04 00:24:00,
2013-12-04 00:39:00,43.3,42.0,30.17,WSW,239,2.0,4.0,93,0.01,,,0.01,weatherlink.com 1.10,2013-12-04 00:39:00,
2013-12-04 00:54:00,43.2,41.0,30.17,WSW,252,2.0,4.0,93,0.01,,,0.01,weatherlink.com 1.10,2013-12-04 00:54:00,
2013-12-04 01:09:00,43.1,41.0,30.17,WSW,250,1.0,3.0,93,0.00,,,0.00,weatherlink.com 1.10,2013-12-04 01:09:00,
2013-12-04 01:24:00,43.2,41.0,30.18,West,274,1.0,4.0,93,0.00,,,0.00,weatherlink.com 1.10,2013-12-04 01:24:00,
2013-12-04 01:39:00,43.2,41.0,30.18,WNW,303,2.0,6.0,93,0.00,,,0.00,weatherlink.com 1.10,2013-12-04 01:39:00,
2013-12-04 01:54:00,43.1,41.0,30.18,West,276,1.0,4.0,93,0.00,,,0.00,weatherlink.com 1.10,2013-12-04 01:54:00,
2013-12-04 02:09:00,43.0,41.0,30.19,West,262,2.0,5.0,93,0.00,,,0.00,weatherlink.com 1.10,2013-12-04 02:09:00,
2013-12-04 02:24:00,43.0,41.0,30.19,West,278,3.0,5.0,93,0.00,,,0.00,weatherlink.com 1.10,2013-12-04 02:24:00,
2013-12-04 02:39:00,42.8,41.0,30.19,WSW,250,1.0,5.0,92,0.00,,,0.00,weatherlink.com 1.10,2013-12-04 02:39:00,
2013-12-04 02:54:00,42.6,41.0,30.20,SW,229,1.0,5.0,92,0.00,,,0.00,weatherlink.com 1.10,2013-12-04 02:54:00,
2013-12-04 03:10:00,42.2,40.0,30.20,SW,224,3.0,5.0,91,0.00,,,0.00,weatherlink.com 1.10,2013-12-04 03:10:00,
2013-12-04 03:25:00,41.9,40.0,30.20,West,276,3.0,5.0,91,0.00,,,0.00,weatherlink.com 1.10,2013-12-04 03:25:00,
2013-12-04 03:40:00,41.4,39.0,30.21,WSW,245,0.0,4.0,91,0.00,,,0.00,weatherlink.com 1.10,2013-12-04 03:40:00,
2013-12-04 03:55:00,41.1,39.0,30.21,West,269,1.0,6.0,91,0.00,,,0.00,weatherlink.com 1.10,2013-12-04 03:55:00,
2013-12-04 04:10:00,40.9,39.0,30.21,West,278,2.0,7.0,91,0.00,,,0.00,weatherlink.com 1.10,2013-12-04 04:10:00,
2013-12-04 04:25:00,40.9,39.0,30.21,WNW,290,3.0,5.0,91,0.00,,,0.00,weatherlink.com 1.10,2013-12-04 04:25:00,
2013-12-04 04:40:00,40.7,38.0,30.22,NW,306,2.0,5.0,90,0.00,,,0.00,weatherlink.com 1.10,2013-12-04 04:40:00,
2013-12-04 04:56:00,40.4,38.0,30.22,WSW,253,2.0,6.0,90,0.00,,,0.00,weatherlink.com 1.10,2013-12-04 04:56:00,
2013-12-04 05:10:00,39.9,37.0,30.22,WSW,248,2.0,6.0,90,0.00,,,0.00,weatherlink.com 1.10,2013-12-04 05:10:00,
2013-12-04 05:25:00,39.7,37.0,30.23,WSW,248,1.0,6.0,91,0.00,,,0.00,weatherlink.com 1.10,2013-12-04 05:25:00,
2013-12-04 05:40:00,39.5,37.0,30.24,WSW,248,3.0,6.0,90,0.00,,,0.00,weatherlink.com 1.10,2013-12-04 05:40:00,
2013-12-04 05:55:00,39.2,37.0,30.24,West,266,1.0,6.0,90,0.00,,,0.00,weatherlink.com 1.10,2013-12-04 05:55:00,
2013-12-04 06:10:00,38.9,36.0,30.24,WNW,285,1.0,6.0,90,0.00,,,0.00,weatherlink.com 1.10,2013-12-04 06:10:00,
2013-12-04 06:25:00,38.7,36.0,30.24,West,260,2.0,5.0,90,0.00,,,0.00,weatherlink.com 1.10,2013-12-04 06:25:00,
2013-12-04 06:40:00,38.6,36.0,30.25,WNW,283,0.0,6.0,90,0.00,,,0.00,weatherlink.com 1.10,2013-12-04 06:40:00,
2013-12-04 06:55:00,38.6,36.0,30.26,West,264,2.0,6.0,90,0.00,,,0.00,weatherlink.com 1.10,2013-12-04 06:55:00,
2013-12-04 07:10:00,38.7,36.0,30.26,WNW,287,3.0,11.0,90,0.00,,,0.00,weatherlink.com 1.10,2013-12-04 07:10:00,
2013-12-04 07:25:00,38.6,36.0,30.26,WSW,246,4.0,5.0,89,0.00,,,0.00,weatherlink.com 1.10,2013-12-04 07:25:00,
2013-12-04 07:40:00,38.6,36.0,30.27,WSW,249,3.0,6.0,89,0.00,,,0.00,weatherlink.com 1.10,2013-12-04 07:40:00,
2013-12-04 07:55:00,38.5,35.0,30.27,West,262,1.0,7.0,88,0.00,,,0.00,weatherlink.com 1.10,2013-12-04 07:55:00,
2013-12-04 08:10:00,38.3,35.0,30.28,West,276,2.0,7.0,88,0.00,,,0.00,weatherlink.com 1.10,2013-12-04 08:10:00,
2013-12-04 08:25:00,38.4,35.0,30.28,West,271,1.0,6.0,88,0.00,,,0.00,weatherlink.com 1.10,2013-12-04 08:25:00,
2013-12-04 08:40:00,38.2,35.0,30.29,SW,231,1.0,8.0,88,0.00,,,0.00,weatherlink.com 1.10,2013-12-04 08:40:00,
2013-12-04 08:56:00,38.1,35.0,30.30,West,278,4.0,7.0,88,0.00,,,0.00,weatherlink.com 1.10,2013-12-04 08:56:00,
2013-12-04 09:11:00,38.3,35.0,30.30,West,266,2.0,6.0,88,0.00,,,0.00,weatherlink.com 1.10,2013-12-04 09:11:00,
2013-12-04 09:26:00,38.6,35.0,30.30,WNW,284,7.0,7.0,88,0.00,,,0.00,weatherlink.com 1.10,2013-12-04 09:26:00,
2013-12-04 09:41:00,39.1,36.0,30.31,WSW,256,0.0,7.0,87,0.00,,,0.00,weatherlink.com 1.10,2013-12-04 09:41:00,
2013-12-04 09:56:00,39.7,36.0,30.31,SSW,197,3.0,8.0,86,0.00,,,0.00,weatherlink.com 1.10,2013-12-04 09:56:00,
2013-12-04 10:11:00,40.5,36.0,30.32,ENE,57,3.0,8.0,84,0.00,,,0.00,weatherlink.com 1.10,2013-12-04 10:11:00,
2013-12-04 10:26:00,41.1,36.0,30.32,SW,224,3.0,8.0,83,0.00,,,0.00,weatherlink.com 1.10,2013-12-04 10:26:00,
2013-12-04 10:41:00,41.2,36.0,30.32,NW,306,8.0,10.0,82,0.00,,,0.00,weatherlink.com 1.10,2013-12-04 10:41:00,
2013-12-04 10:56:00,41.2,36.0,30.32,SW,231,2.0,6.0,82,0.00,,,0.00,weatherlink.com 1.10,2013-12-04 10:56:00,
2013-12-04 11:11:00,41.5,36.0,30.32,SW,215,4.0,8.0,82,0.00,,,0.00,weatherlink.com 1.10,2013-12-04 11:11:00,
2013-12-04 11:26:00,42.0,37.0,30.32,SW,236,3.0,11.0,81,0.00,,,0.00,weatherlink.com 1.10,2013-12-04 11:26:00,
2013-12-04 11:41:00,42.5,37.0,30.32,WNW,298,5.0,13.0,80,0.00,,,0.00,weatherlink.com 1.10,2013-12-04 11:41:00,
2013-12-04 11:56:00,42.8,37.0,30.32,WSW,250,3.0,12.0,80,0.00,,,0.00,weatherlink.com 1.10,2013-12-04 11:56:00,
2013-12-04 12:11:00,43.4,38.0,30.32,ENE,57,4.0,9.0,80,0.00,,,0.00,weatherlink.com 1.10,2013-12-04 12:11:00,
2013-12-04 12:26:00,43.9,37.0,30.32,West,270,5.0,11.0,78,0.00,,,0.00,weatherlink.com 1.10,2013-12-04 12:26:00,
2013-12-04 12:41:00,44.3,38.0,30.32,WSW,248,7.0,10.0,78,0.00,,,0.00,weatherlink.com 1.10,2013-12-04 12:41:00,
2013-12-04 12:57:00,44.7,38.0,30.32,WSW,242,4.0,11.0,78,0.00,,,0.00,weatherlink.com 1.10,2013-12-04 12:57:00,
2013-12-04 13:11:00,44.8,38.0,30.32,West,277,4.0,9.0,77,0.00,,,0.00,weatherlink.com 1.10,2013-12-04 13:11:00,
2013-12-04 13:26:00,45.0,38.0,30.32,WSW,257,2.0,9.0,77,0.00,,,0.00,weatherlink.com 1.10,2013-12-04 13:26:00,
2013-12-04 13:41:00,45.2,38.0,30.32,West,269,1.0,8.0,77,0.00,,,0.00,weatherlink.com 1.10,2013-12-04 13:41:00,
2013-12-04 13:56:00,45.4,38.0,30.32,West,260,2.0,9.0,76,0.00,,,0.00,weatherlink.com 1.10,2013-12-04 13:56:00,
2013-12-04 14:11:00,45.5,38.0,30.32,West,264,4.0,10.0,76,0.00,,,0.00,weatherlink.com 1.10,2013-12-04 14:11:00,
2013-12-04 14:26:00,45.5,38.0,30.33,WSW,252,2.0,9.0,76,0.00,,,0.00,weatherlink.com 1.10,2013-12-04 14:26:00,
2013-12-04 14:41:00,45.4,38.0,30.32,WNW,295,3.0,9.0,76,0.00,,,0.00,weatherlink.com 1.10,2013-12-04 14:41:00,
2013-12-04 14:56:00,45.1,38.0,30.32,NW,312,2.0,10.0,77,0.00,,,0.00,weatherlink.com 1.10,2013-12-04 14:56:00,
2013-12-04 15:11:00,44.9,38.0,30.32,West,274,7.0,13.0,77,0.00,,,0.00,weatherlink.com 1.10,2013-12-04 15:11:00,
2013-12-04 15:26:00,44.3,38.0,30.32,WNW,292,5.0,10.0,78,0.00,,,0.00,weatherlink.com 1.10,2013-12-04 15:26:00,
2013-12-04 15:41:00,43.6,38.0,30.32,West,263,3.0,8.0,79,0.00,,,0.00,weatherlink.com 1.10,2013-12-04 15:41:00,
2013-12-04 15:56:00,43.1,37.0,30.33,NW,307,1.0,7.0,80,0.00,,,0.00,weatherlink.com 1.10,2013-12-04 15:56:00,
2013-12-04 16:12:00,42.8,37.0,30.34,WSW,257,4.0,8.0,81,0.00,,,0.00,weatherlink.com 1.10,2013-12-04 16:12:00,
2013-12-04 16:27:00,42.8,37.0,30.33,West,259,3.0,11.0,80,0.00,,,0.00,weatherlink.com 1.10,2013-12-04 16:27:00,
2013-12-04 16:42:00,42.9,37.0,30.33,West,271,4.0,9.0,80,0.00,,,0.00,weatherlink.com 1.10,2013-12-04 16:42:00,
2013-12-04 16:57:00,42.9,37.0,30.33,West,271,5.0,10.0,80,0.00,,,0.00,weatherlink.com 1.10,2013-12-04 16:57:00,
2013-12-04 17:12:00,42.7,37.0,30.33,WSW,248,5.0,9.0,80,0.00,,,0.00,weatherlink.com 1.10,2013-12-04 17:12:00,
2013-12-04 17:27:00,42.6,37.0,30.33,WNW,288,2.0,13.0,81,0.00,,,0.00,weatherlink.com 1.10,2013-12-04 17:27:00,
2013-12-04 17:42:00,42.5,37.0,30.33,West,280,3.0,9.0,82,0.00,,,0.00,weatherlink.com 1.10,2013-12-04 17:42:00,
2013-12-04 17:57:00,42.4,37.0,30.33,WSW,252,4.0,10.0,82,0.00,,,0.00,weatherlink.com 1.10,2013-12-04 17:57:00,
2013-12-04 18:12:00,42.4,37.0,30.33,SW,229,3.0,13.0,81,0.00,,,0.00,weatherlink.com 1.10,2013-12-04 18:12:00,
2013-12-04 18:27:00,42.4,37.0,30.33,West,270,4.0,9.0,81,0.00,,,0.00,weatherlink.com 1.10,2013-12-04 18:27:00,
2013-12-04 18:42:00,42.5,37.0,30.33,SW,236,3.0,10.0,80,0.00,,,0.00,weatherlink.com 1.10,2013-12-04 18:42:00,
2013-12-04 18:57:00,42.4,37.0,30.32,WSW,237,4.0,10.0,80,0.00,,,0.00,weatherlink.com 1.10,2013-12-04 18:57:00,
2013-12-04 19:12:00,42.5,36.0,30.32,West,278,5.0,9.0,79,0.00,,,0.00,weatherlink.com 1.10,2013-12-04 19:12:00,
2013-12-04 19:27:00,42.3,36.0,30.32,North,10,4.0,11.0,79,0.00,,,0.00,weatherlink.com 1.10,2013-12-04 19:27:00,
2013-12-04 19:42:00,41.6,36.0,30.31,West,281,2.0,10.0,80,0.00,,,0.00,weatherlink.com 1.10,2013-12-04 19:42:00,
2013-12-04 19:57:00,41.6,36.0,30.31,WSW,245,5.0,9.0,80,0.00,,,0.00,weatherlink.com 1.10,2013-12-04 19:57:00,
2013-12-04 20:12:00,41.5,36.0,30.32,NNW,337,2.0,11.0,80,0.00,,,0.00,weatherlink.com 1.10,2013-12-04 20:12:00,
2013-12-04 20:27:00,40.7,35.0,30.31,WSW,243,6.0,8.0,81,0.00,,,0.00,weatherlink.com 1.10,2013-12-04 20:27:00,
2013-12-04 20:42:00,41.5,36.0,30.31,West,273,4.0,11.0,81,0.00,,,0.00,weatherlink.com 1.10,2013-12-04 20:42:00,
2013-12-04 20:57:00,41.6,36.0,30.30,West,278,7.0,12.0,81,0.00,,,0.00,weatherlink.com 1.10,2013-12-04 20:57:00,
2013-12-04 21:12:00,41.3,36.0,30.30,WSW,255,2.0,12.0,82,0.00,,,0.00,weatherlink.com 1.10,2013-12-04 21:12:00,
2013-12-04 21:27:00,40.5,35.0,30.29,WSW,245,4.0,9.0,82,0.00,,,0.00,weatherlink.com 1.10,2013-12-04 21:27:00,
2013-12-04 21:42:00,40.3,36.0,30.27,West,262,5.0,10.0,83,0.00,,,0.00,weatherlink.com 1.10,2013-12-04 21:42:00,
2013-12-04 21:57:00,40.2,36.0,30.27,WSW,257,5.0,10.0,84,0.00,,,0.00,weatherlink.com 1.10,2013-12-04 21:57:00,
2013-12-04 22:12:00,40.1,36.0,30.27,West,280,2.0,16.0,84,0.00,,,0.00,weatherlink.com 1.10,2013-12-04 22:12:00,
2013-12-04 22:27:00,40.1,36.0,30.26,West,277,6.0,14.0,84,0.00,,,0.00,weatherlink.com 1.10,2013-12-04 22:27:00,
2013-12-04 22:57:00,41.0,36.0,30.26,NNW,335,2.0,13.0,83,0.00,,,0.00,weatherlink.com 1.10,2013-12-04 22:57:00,
2013-12-04 23:12:00,41.0,36.0,30.26,South,184,4.0,13.0,83,0.00,,,0.00,weatherlink.com 1.10,2013-12-04 23:12:00,
2013-12-04 23:27:00,41.7,37.0,30.25,West,269,5.0,12.0,82,0.00,,,0.00,weatherlink.com 1.10,2013-12-04 23:27:00,
2013-12-04 23:42:00,42.1,37.0,30.25,WSW,249,8.0,14.0,81,0.00,,,0.00,weatherlink.com 1.10,2013-12-04 23:42:00,
2013-12-04 23:57:00,42.0,37.0,30.24,WSW,253,11.0,16.0,81,0.00,,,0.00,weatherlink.com 1.10,2013-12-04 23:57:00,